User: anonymous   Login
Location: Adamstown South Public School
(32.9318°S, 151.7012°E)
Time: 13:06:57
(UTC+00:00)
Language:

AQUARIUS - Orbit

View from above orbital plane
View from above orbital plane
View from above satellite
View from above satellite

Ground track
Ground track

The orbit data is extracted from the following two-line orbital elements,

1 37673U 11024A   20219.05708466  .00000067  00000-0  18088-4 0  9996
2 37673  98.0076 225.9998 0001997 106.1948 320.9261 14.73006440492183
Epoch (UTC): 06 August 2020 01:22:12
Eccentricity: 0.0001997
inclination: 98.0076°
perigee height: 650 km
apogee height: 653 km
right ascension of ascending node: 225.9998°
argument of perigee: 106.1948°
revolutions per day: 14.73006440
mean anomaly at epoch: 320.9261°
orbit number at epoch: 49218

The dashed part of the orbit path shows where the satellite is in the earth's shadow,  

DLR